Погода в Бхагалпуре

Индия     25°14′49″N   86°59′04″E
темп.,
°C
ветер,
м/с
пор.,
м/с
влажн.,
%
обл.,
%
осадки,
мм/ч
давл.,
гПа
погр.,
м
24 января, пн
пн2423:30+16в1178100 0.0 101224
02:30+14всв3591100 1.3 1012148
05:30+15в1288100 1.6 101151
08:30+16юв2380100 0.0 1013104
11:30+21вюв34575 0.0 1013934
14:30+24в334845 0.0 10091657
17:30+21юв226086 0.3 101042
20:30+18юв227447 0.0 101214
25 января, вт
вт2523:30+16с228549 1.9 101228
02:30+15с22883 0.9 101231
05:30+14св129171 0.9 101213
08:30+17в238211 0.0 1014257
11:30+22св11572 0.0 10141020
14:30+24ссз334416 0.0 10102284
17:30+20сз22540 0.0 101115
20:30+19ссз335299 0.0 101350
26 января, ср
ср2623:30+19с2353100 0.0 101365
02:30+18ссз225699 0.0 101233
05:30+17всв346466 0.0 101274
08:30+18св2263100 0.0 1015155
11:30+22св224818 0.0 1014907
14:30+23св114534 0.0 1011977
17:30+20ссз33515 0.0 101168
20:30+18сз2253100 0.0 101334
27 января, чт
чт2723:30+15зсз346912 0.3 101382
02:30+14сз357760 0.1 101394
05:30+12зсз33782 0.1 101351
08:30+16зсз34610 0.0 1016277
11:30+21сз44430 0.0 10151080
14:30+22зсз55350 0.0 10131954
17:30+17зсз33490 0.0 101239
20:30+15сз45550 0.0 101476
28 января, пт
пт2823:30+13сз34600 0.0 101463
02:30+12зсз33650 0.0 101434
05:30+11зсз34700 0.0 101445
08:30+15зсз35580 0.0 1017309
11:30+20сз55470 0.0 10161255
14:30+22сз34370 0.0 10131952
17:30+17з34510 0.0 101342
20:30+15зсз45570 0.0 101578